Погода в Давыдовке

Россия / Липецкая область     52°45′42″N   39°35′16″E
темп.,
°C
ветер,
м/с
пор.,
м/с
влажн.,
%
обл.,
%
осадки,
мм/ч
давл.,
гПа
погр.,
м
17 июня, чт
чт1700:00+16ссв411935 0.0 1016243
03:00+15ссв412920 0.0 1017304
06:00+15ссв410860 0.0 1019284
09:00+18ссв68680 0.0 1020489
12:00+22св56600 0.0 10211160
15:00+23св66610 0.0 10211492
18:00+21св59690 0.0 1022609
21:00+16св36850 0.0 1023106
18 июня, пт
пт1800:00+14св4108175 0.0 1024189
03:00+12св49840 0.0 1025169
06:00+14всв39840 0.0 1026259
09:00+19всв58650 0.0 1027656
12:00+21в67560 0.0 10261307
15:00+22в56560 0.0 10261592
18:00+21в46660 0.0 1026477
21:00+16в33800 0.0 102647
19 июня, сб
сб1900:00+14в33865 0.0 102740
03:00+13в22905 0.0 102828
06:00+14всв24870 0.0 1028134
09:00+19вюв45684 0.0 1028656
12:00+22вюв45554 0.0 10271108
15:00+23вюв44530 0.0 10261177
18:00+22вюв35650 0.0 1025376
21:00+17вюв22810 0.0 102517
20 июня, вс
вс2000:00+15юв22877 0.0 102613
03:00+14вюв22860 0.0 102615
06:00+15в24840 0.0 1026114
09:00+20вюв35670 0.0 1025484
12:00+24вюв44550 0.0 10251004
15:00+25вюв3452100 0.0 10231133
18:00+24вюв346638 0.0 1023259
21:00+19в33815 0.0 102226
21 июня, пн
пн2100:00+17в238892 0.0 102223
03:00+16в339098 0.0 102235
06:00+18в258898 0.0 1022138
09:00+23вюв456814 0.0 1022441
12:00+27вюв45554 0.0 1021895
15:00+28вюв44525 0.0 10211218
18:00+27вюв34657 0.0 1020217
21:00+22вюв22795 0.0 102119